Location: Newark
(36.1358°N, 115.1208°W)
Time: 15:00:38
(UTC+00:00)

Vanguard 1 Rocket - Pass Details

Date: 21 February 2020
Orbit: 650 x 4227 km, 34.3° (Epoch: 30 March)

Event Time Altitude Azimuth Distance (km) Brightness Sun altitude
Rises 06:20:45 0° 197° (SSW) 6,972 - -57.0°
Reaches altitude 10° 06:29:38 10° 175° (S) 4,998 - -58.2°
Maximum altitude 06:34:42 13° 153° (SSE) 4,142 - -58.9°
Drops below altitude 10° 06:38:46 10° 129° (SE) 3,860 - -59.4°
Sets 06:43:34 0° 102° (ESE) 4,216 - -60.0°
